Location: *
(38.3914°N, 75.0697°W)
Time: 09:23:17
(UTC+00:00)

Cosmos 1238 Rocket - Pass Details

Date: 17 February 2020
Orbit: 374 x 1032 km, 83.0° (Epoch: 27 March)

Event Time Altitude Azimuth Distance (km) Brightness Sun altitude
Rises 11:09:07 0° 349° (N) 3,681 6.8 -8.5°
Reaches altitude 10° 11:11:50 10° 347° (NNW) 2,664 6.1 -7.9°
Maximum altitude 11:17:50 63° 268° (W) 936 3.7 -6.8°
Drops below altitude 10° 11:22:54 10° 188° (S) 2,244 6.0 -5.8°
Sets 11:25:01 0° 185° (S) 3,062 6.7 -5.4°
